Location: Ferchesar
(52.6477°N, 12.4298°E)
Time: 17:40:10
(UTC+01:00)

Tiros 1 - Pass Details

Date: 12 December 2021
Orbit: 629 x 664 km, 48.4° (Epoch: 22 January)

Event Time Altitude Azimuth Distance (km) Brightness Sun altitude
Rises 21:32:32 0° 275° (W) 2,937 - -48.8°
Reaches altitude 10° 21:35:41 10° 253° (WSW) 2,031 - -49.2°
Maximum altitude 21:38:24 15° 217° (SW) 1,699 - -49.6°
Drops below altitude 10° 21:41:08 10° 181° (S) 2,038 - -49.9°
Sets 21:44:19 0° 160° (SSE) 2,952 - -50.3°
